Home > Weather > Bad Oldesloe > Past weeks

Flag for Germany Weather for the Past 2 Weeks in Bad Oldesloe, Schleswig-Holstein, Germany

Now
36 °F

Light rain. Partly sunny.


Feels Like: 26 °F
Forecast: 31 / 36 °F
Wind: 15 mph from Northeast

Location: Luebeck-Blankensee

Current Time: Feb 14, 2016 at 12:27:30 PM

Latest Report: Feb 14, 2016 at 11:50 AM


Visibility: 4 mi

Pressure: 29.27 "Hg

Humidity: 93%

Dew point: 34 °F

Location of Bad OldesloeLocation

Historic Weather in Bad Oldesloe — Graph

°F

Bad Oldesloe Temperature Yesterday

Maximum temperature yesterday: 39 °F (at 2:50 PM)
Minimum temperature yesterday: 30 °F (at 6:50 AM)
Average temperature yesterday: 34 °F

High & Low Weather Summary for the Past Weeks

 TemperatureHumidityPressure
High54 °F (Feb 7, 2:20 PM)100% (Jan 30, 12:50 PM)30.18 "Hg (Jan 30, 12:50 PM)
Low30 °F (Feb 13, 6:50 AM)54% (Feb 2, 3:20 PM)28.88 "Hg (Feb 9, 7:50 PM)
Average42 °F84%29.58 "Hg
* Reported Jan 30 10:20 AM — Feb 14 10:50 AM, Bad Oldesloe, Weather by CustomWeather, © 2016

Note: Actual official high and low records may vary slightly from our data, if they occured in-between our weather recording intervals... More about our weather records

Advertising

Bad Oldesloe Weather History for the Previous 24 Hours

 ConditionsComfort  
Time TempWeatherWind HumidityBarometerVisibility
10:50 AM
Sun, Feb 14
36 °FLight rain. Partly sunny.15 mph93%29.27 "Hg4 mi
10:20 AM36 °FLight rain. Partly sunny.14 mph87%29.27 "Hg4 mi
9:50 AM34 °FLight rain. Partly sunny.14 mph93%29.27 "Hg3 mi
9:20 AM34 °FLight rain. Fog.14 mph93%29.24 "Hg2 mi
8:20 AM34 °FFog.15 mph87%29.24 "Hg2 mi
7:50 AM34 °FFog.13 mph93%29.24 "Hg2 mi
7:20 AM34 °FFog.10 mph93%29.24 "Hg2 mi
6:50 AM34 °FFog.12 mph93%29.24 "Hg3 mi
7:50 PM
Sat, Feb 13
34 °FFog.7 mph93%29.33 "Hg2 mi
7:20 PM34 °FFog.9 mph100%29.33 "Hg2 mi
6:50 PM34 °FFog.9 mph100%29.33 "Hg2 mi
6:20 PM34 °FFog.9 mph100%29.33 "Hg1 mi
5:50 PM34 °FFog.10 mph100%29.36 "Hg1 mi
5:20 PM36 °FFog.10 mph93%29.36 "Hg2 mi
4:50 PM36 °FPartly sunny.10 mph93%29.36 "Hg4 mi
4:20 PM37 °FPartly sunny.10 mph87%29.36 "Hg5 mi
3:50 PM37 °FScattered clouds.10 mph87%29.36 "Hg6 mi
3:20 PM37 °FScattered clouds.9 mph93%29.36 "HgN/A
2:50 PM39 °FScattered clouds.8 mph81%29.39 "HgN/A
2:20 PM37 °FPartly sunny.7 mph93%29.39 "HgN/A
1:50 PM37 °FPartly sunny.7 mph93%29.39 "Hg5 mi
1:20 PM36 °FPartly sunny.7 mph100%29.42 "Hg4 mi
12:50 PM34 °FFog.8 mph100%29.42 "Hg3 mi
12:20 PM34 °FFog.8 mph100%29.45 "Hg1 mi
Weather by CustomWeather, © 2016

See weather overviewHow to use our weather pages